Location: ???????
(55.8860°N, 38.0932°E)
Time: 05:21:36
(UTC+00:00)

Cosmos 192 - Pass Details

Date: 14 April 2024
Orbit: 699 x 710 km, 74.0° (Epoch: 22 May)

Event Time Altitude Azimuth Distance (km) Brightness Sun altitude
Rises 00:25:29 0° 329° (NNW) 3,097 7.8 -15.0°
Reaches altitude 10° 00:27:50 10° 326° (NW) 2,176 7.0 -14.7°
Maximum altitude 00:32:38 56° 249° (WSW) 838 4.4 -14.2°
Drops below altitude 10° 00:37:23 10° 172° (S) 2,165 6.5 -13.7°
Sets 00:39:44 0° 168° (SSE) 3,081 7.3 -13.5°
